Location: ??????
(36.0418°N, 43.6351°E)
Time: 04:12:13
(UTC+00:00)

Cosmos 2333 Rocket - Pass Details

Date: 07 March 2021
Orbit: 837 x 864 km, 70.8° (Epoch: 19 April)

Event Time Altitude Azimuth Distance (km) Brightness Sun altitude
Rises 01:23:22 0° 346° (NNW) 3,446 5.4 -25.8°
Reaches altitude 10° 01:26:00 10° 354° (N) 2,508 4.7 -25.3°
Maximum altitude 01:31:23 39° 62° (ENE) 1,267 3.6 -24.2°
Drops below altitude 10° 01:36:44 10° 131° (SE) 2,496 5.1 -23.2°
Sets 01:39:21 0° 139° (SE) 3,428 5.8 -22.7°
